EW7074 Weather Reports


Display with metric or nautical units.
time (UTC)temp
F
wind
direction
speed
MPH
gust
MPH
rain 1hr
in
rain 24hr
in
rain mn
in
humidity
%
barometer
mb
20260831053729 61 0.0 0.0 0.00 0.00 0.00 91
20260831052507 61 296 0.0 0.0 0.00 0.00 0.00 91 1012.2
20260831052005 61 175 0.0 0.0 0.00 0.00 0.00 91 1011.9
20260831051241 61 175 0.0 0.0 0.00 0.00 0.00 91 1011.8
20260831050741 62 0.0 0.0 0.00 0.00 0.00 91
20260831045816 62 146 0.0 0.0 0.00 0.00 0.00 91 1011.5
20260831045305 62 92 0.0 0.0 0.00 0.00 0.00 91 1011.5
20260831044407 62 93 0.0 0.0 0.00 0.00 0.00 91 1011.8
20260831043902 62 0.0 0.0 0.00 0.00 0.00 90 1012.0
20260831042757 62 41 0.0 0.0 0.00 0.00 0.00 90 1012.5
20260831042252 62 0.0 0.0 0.00 0.00 0.00 90
20260831041322 62 41 0.0 0.0 0.00 0.00 0.00 90 1012.6
20260831040812 62 0.0 0.0 0.00 0.00 0.00 90
20260831035849 62 41 0.0 0.0 0.00 0.00 0.00 90 1012.6
20260831035339 63 0.0 0.0 0.00 0.00 0.00 90
20260831034312 63 41 0.0 0.0 0.00 0.00 0.00 90 1012.0
20260831033803 63 0.0 0.0 0.00 0.00 0.00 90
20260831033110 63 193 0.0 0.0 0.00 0.00 0.00 90 1012.6
20260831032328 63 0.0 0.0 0.00 0.00 0.00 89
20260831031353 63 175 0.0 0.0 0.00 0.00 0.00 89 1012.7
20260831030843 63 0.0 0.0 0.00 0.00 0.00 89
20260831025257 63 0.0 0.0 0.00 0.00 0.04 89
20260831024510 63 86 0.0 1.0 0.00 0.00 0.04 89 1012.7
20260831023738 63 0.0 0.0 0.00 0.00 0.04 90
20260831022554 63 0.0 0.0 0.00 0.00 0.04 90
20260831021250 63 79 0.0 6.0 0.00 0.00 0.04 90 1012.9
20260831020742 63 0.0 0.0 0.00 0.00 0.04 90
20260831015816 63 81 3.0 8.0 0.00 0.00 0.04 90 1013.1
20260831015258 63 0.0 0.0 0.00 0.00 0.04 90
20260831014434 63 110 2.0 9.0 0.00 0.00 0.04 90 1012.9
20260831013915 63 0.0 0.0 0.00 0.00 0.04 90
20260831012840 63 66 0.0 0.0 0.00 0.00 0.04 90 1013.2
20260831012330 63 80 1.0 7.0 0.00 0.00 0.04 90 1013.3
20260831011820 63 113 2.0 6.0 0.00 0.00 0.04 90 1013.3
20260831011316 63 107 3.0 6.0 0.00 0.00 0.04 90 1013.4
20260831010816 63 0.0 0.0 0.00 0.00 0.04 90
20260831005746 63 135 3.0 12.0 0.00 0.00 0.04 90 1013.2
20260831005244 64 0.0 0.0 0.00 0.00 0.04 90
20260831004315 64 125 0.0 5.0 0.00 0.00 0.04 90 1013.9
20260831004025 64 0.0 0.0 0.00 0.00 0.04 90
20260831002839 64 134 0.0 1.0 0.00 0.00 0.04 90 1014.2
20260831002337 64 0.0 0.0 0.00 0.00 0.04 89
20260831001311 64 108 1.0 8.0 0.00 0.00 0.04 89 1014.0
20260831000754 64 0.0 0.0 0.00 0.00 0.04 89
20260830235744 65 0.0 0.0 0.00 0.00 0.02 88
20260830235737 65 167 1.0 6.0 0.02 0.02 0.04 89 1014.5
20260830234323 65 115 8.0 14.0 0.02 0.02 0.02 88 1015.5
20260830233809 65 0.0 0.0 0.00 0.00 0.00 88
20260830232845 65 216 7.0 17.0 0.00 0.00 0.00 88 1015.9
20260830232335 65 0.0 0.0 0.00 0.00 0.00 88
20260830231309 65 136 3.0 6.0 0.00 0.00 0.00 88 1011.7
20260830231029 65 0.0 0.0 0.00 0.00 0.00 88
20260830225734 65 120 2.0 9.0 0.00 0.00 0.00 88 1011.2
20260830225228 65 175 2.0 0.0 0.00 0.00 0.00 88 1011.4
20260830224547 65 92 4.0 11.0 0.00 0.00 0.00 87 1011.3
20260830223801 66 0.0 0.0 0.00 0.00 0.00 87
20260830222829 66 120 1.0 8.0 0.00 0.00 0.00 87 1011.8
20260830222314 66 0.0 0.0 0.00 0.00 0.00 86
20260830221849 66 151 0.0 0.0 0.00 0.00 0.00 86 1012.3
20260830220837 66 0.0 0.0 0.00 0.00 0.00 86
20260830215809 66 159 2.0 3.0 0.00 0.00 0.00 86 1012.6
20260830215254 66 0.0 0.0 0.00 0.00 0.00 86
20260830214236 66 185 2.0 15.0 0.00 0.00 0.00 86 1011.1
20260830213506 67 111 3.0 9.0 0.00 0.00 0.00 86
20260830212833 67 131 2.0 8.0 0.00 0.00 0.00 86 1010.9
20260830212326 67 0.0 0.0 0.00 0.00 0.00 85
20260830211958 67 147 0.0 1.0 0.00 0.00 0.00 85 1011.3
20260830210725 67 127 0.0 0.0 0.00 0.00 0.00 85 1011.2
20260830205821 67 140 1.0 7.0 0.00 0.00 0.00 85 1012.1
20260830205318 67 0.0 0.0 0.00 0.00 0.00 84
20260830204540 67 149 1.0 1.0 0.00 0.00 0.00 84 1013.0
20260830203755 68 0.0 0.0 0.00 0.00 0.00 84
20260830202837 68 107 3.0 9.0 0.00 0.00 0.00 84 1010.7
20260830202331 68 0.0 0.0 0.00 0.00 0.00 84
20260830201313 68 110 2.0 4.0 0.00 0.00 0.00 84 1011.5
20260830200754 68 0.0 0.0 0.00 0.00 0.00 84
20260830195823 68 130 1.0 13.0 0.00 0.00 0.00 84 1011.3
20260830195315 68 0.0 0.0 0.00 0.00 0.00 84
20260830194256 68 108 1.0 2.0 0.00 0.00 0.00 84 1011.1
20260830193756 68 0.0 0.0 0.00 0.00 0.00 84
20260830192832 68 152 1.0 10.0 0.00 0.00 0.00 84 1011.3
20260830192328 69 0.0 0.0 0.00 0.00 0.00 84
20260830191542 69 131 1.0 8.0 0.00 0.00 0.00 84 1011.4
20260830190810 69 123 1.0 8.0 0.00 0.00 0.00 83 1011.4
20260830190312 69 189 0.0 8.0 0.00 0.00 0.00 84 1011.3
20260830190140 69 120 0.0 1.0 0.00 0.00 0.00 84 1011.5
20260830190036 69 0.0 0.0 0.00 0.00 0.00 84
20260830184342 69 131 0.0 7.0 0.00 0.00 0.00 84 1011.4
20260830183827 69 0.0 0.0 0.00 0.00 0.00 83
20260830182811 69 143 0.0 1.0 0.00 0.00 0.00 83 1011.9
20260830182308 69 0.0 0.0 0.00 0.00 0.00 83
20260830181346 69 205 0.0 1.0 0.00 0.00 0.00 83 1012.4
20260830180832 69 0.0 0.0 0.00 0.00 0.00 83
20260830175809 69 166 1.0 5.0 0.00 0.00 0.00 83 1011.8
20260830175305 69 0.0 0.0 0.00 0.00 0.00 83
20260830174333 69 106 0.0 1.0 0.00 0.00 0.00 83 1011.8
20260830173833 69 0.0 0.0 0.00 0.00 0.00 83
20260830172811 69 191 0.0 0.0 0.00 0.00 0.00 83 1011.9
20260830172538 69 0.0 0.0 0.00 0.00 0.00 83
20260830171342 69 200 0.0 1.0 0.00 0.00 0.00 83 1012.7
20260830170833 69 0.0 0.0 0.00 0.00 0.00 82
20260830165807 69 134 0.0 2.0 0.00 0.00 0.00 82 1012.9
20260830165534 69 0.0 0.0 0.00 0.00 0.00 82
20260830164335 69 113 0.0 1.0 0.00 0.00 0.00 82 1012.9
20260830164105 69 0.0 0.0 0.00 0.00 0.00 82
20260830162811 69 137 0.0 1.0 0.00 0.00 0.00 82 1013.0
20260830162306 69 0.0 0.0 0.00 0.00 0.00 82
20260830161254 69 100 0.0 1.0 0.00 0.00 0.00 82 1013.6
20260830160753 69 0.0 0.0 0.00 0.00 0.00 81
20260830155838 69 94 0.0 1.0 0.00 0.00 0.00 82 1013.3
20260830155606 69 0.0 0.0 0.00 0.00 0.00 81
20260830154538 69 126 0.0 1.0 0.00 0.00 0.00 81 1013.5
20260830153759 69 0.0 0.0 0.00 0.00 0.00 80
20260830152733 69 126 1.0 6.0 0.00 0.00 0.00 80 1013.3
20260830152227 68 128 0.0 0.0 0.00 0.00 0.00 81 1013.3
20260830150817 68 0.0 0.0 0.00 0.00 0.00 80
20260830145854 68 103 0.0 5.0 0.00 0.00 0.00 80 1013.8
20260830145335 68 0.0 0.0 0.00 0.00 0.00 81
20260830144307 68 185 3.0 8.0 0.00 0.00 0.00 80 1014.1
20260830143756 68 0.0 0.0 0.00 0.00 0.00 80
20260830142831 68 111 1.0 6.0 0.00 0.00 0.00 80 1014.1
20260830142328 68 0.0 0.0 0.00 0.00 0.00 79
20260830141047 68 95 2.0 13.0 0.00 0.00 0.00 79 1014.1
20260830140532 69 0.0 10.0 0.00 0.00 0.00 78
20260830135816 68 0.0 0.0 0.00 0.00 0.00 80
20260830134442 68 0.0 0.0 0.00 0.00 0.00 80 1014.3
20260830132910 67 115 4.0 0.0 0.00 0.00 0.00 80 1014.5
20260830132641 67 0.0 0.0 0.00 0.00 0.00 80
20260830131335 67 165 3.0 11.0 0.00 0.00 0.00 80 1014.6
20260830130825 67 0.0 0.0 0.00 0.00 0.00 81
20260830125547 66 0.0 0.0 0.00 0.00 0.00 82
20260830124324 66 144 1.0 2.0 0.00 0.00 0.00 82 1014.6
20260830123819 65 0.0 0.0 0.00 0.00 0.00 84
20260830122815 65 114 1.0 5.0 0.00 0.00 0.00 84 1014.8
20260830122308 65 125 0.0 0.0 0.00 0.00 0.00 85 1014.7
20260830121314 65 82 0.0 1.0 0.00 0.00 0.00 85 1014.7
20260830120813 65 0.0 0.0 0.00 0.00 0.00 85
20260830115756 64 93 3.0 8.0 0.00 0.00 0.00 85 1014.2
20260830115256 64 114 5.0 6.0 0.00 0.00 0.00 85 1014.3
20260830114501 64 72 4.0 9.0 0.00 0.00 0.00 85 1014.5
20260830114001 65 0.0 0.0 0.00 0.00 0.00 85
20260830113050 65 106 3.0 8.0 0.00 0.00 0.00 85 1014.5
20260830112311 64 0.0 0.0 0.00 0.00 0.00 87
20260830111252 64 112 0.0 0.0 0.00 0.00 0.00 87 1014.1
20260830110752 63 0.0 0.0 0.00 0.00 0.00 88
20260830105829 63 140 0.0 0.0 0.00 0.00 0.00 88 1014.0
20260830105321 63 0.0 0.0 0.00 0.00 0.00 89
20260830104303 63 153 0.0 0.0 0.00 0.00 0.00 89 1014.1
20260830103039 62 127 0.0 0.0 0.00 0.00 0.00 89 1014.2
20260830102255 62 0.0 0.0 0.00 0.00 0.00 89
20260830100810 62 0.0 0.0 0.00 0.00 0.00 89
20260830095847 62 130 0.0 0.0 0.00 0.00 0.00 89 1014.0
20260830095323 62 0.0 0.0 0.00 0.00 0.00 89
20260830094300 62 131 0.0 0.0 0.00 0.00 0.00 89 1013.8
20260830093745 62 0.0 0.0 0.00 0.00 0.00 90
20260830092717 62 128 0.0 0.0 0.00 0.00 0.00 90 1013.5
20260830092216 62 185 0.0 0.0 0.00 0.00 0.00 90 1013.6
20260830091249 62 118 0.0 0.0 0.00 0.00 0.00 90 1013.7
20260830090745 62 0.0 0.0 0.00 0.00 0.00 90
20260830085730 62 121 0.0 0.0 0.00 0.00 0.00 90 1013.5
20260830085229 62 0.0 0.0 0.00 0.00 0.00 90
20260830084318 62 158 0.0 0.0 0.00 0.00 0.00 90 1013.3
20260830084029 62 153 0.0 0.0 0.00 0.00 0.00 90 1013.4
20260830082806 62 114 0.0 0.0 0.00 0.00 0.00 90 1013.5
20260830082534 62 0.0 0.0 0.00 0.00 0.00 90
20260830081615 62 156 0.0 0.0 0.00 0.00 0.00 90 1013.4
20260830080832 62 0.0 0.0 0.00 0.00 0.00 90
20260830075812 62 129 0.0 0.0 0.00 0.00 0.00 90 1013.2
20260830075306 62 162 0.0 0.0 0.00 0.00 0.00 90 1013.3
20260830073800 62 0.0 0.0 0.00 0.00 0.00 91
20260830073101 62 199 0.0 0.0 0.00 0.00 0.00 91 1013.1
20260830072321 62 0.0 0.0 0.00 0.00 0.00 91
20260830071255 62 185 0.0 0.0 0.00 0.00 0.00 91 1013.4
20260830070738 62 0.0 0.0 0.00 0.00 0.00 91
20260830070042 62 118 0.0 0.0 0.00 0.00 0.00 91 1013.3
20260830065258 62 0.0 0.0 0.00 0.00 0.00 91
20260830064322 62 124 0.0 0.0 0.00 0.00 0.00 91 1013.5
20260830063806 62 0.0 0.0 0.00 0.00 0.00 92
20260830062843 62 153 0.0 0.0 0.00 0.00 0.00 92 1013.6
20260830062323 62 0.0 0.0 0.00 0.00 0.00 92
20260830061530 62 148 0.0 0.0 0.00 0.00 0.00 92 1013.5
20260830055932 62 144 0.0 0.0 0.00 0.00 0.00 92 1013.5
20260830055428 62 161 0.0 0.0 0.00 0.00 0.00 92 1013.6
20260830054423 62 161 0.0 0.0 0.00 0.00 0.00 92 1014.0